DECAYED

ARIANE 44L DEB, 27671 (Decayed)

Orbit data source: Space-Track

ARIANE 44L DEB, 27671 was space debris in LEO originally from a launch on Tue, 29 Oct 1991 UTC launched from the French Guiana (FRGUI). Debris objects in space refer to the collection of defunct objects orbiting the Earth. Examples of debris include non-operational satellites, rocket bodies, and fragments generated from explosions, collisions, or faulty payload assembly.

Not visible in the next 10 days
Identifier
27671, 1991-075G
Orbit
Decayed
Country
Flag of FRFR
Related business
Manufacturer
Unknown
Mission
Decayed spacecraft
Bus & Motor
Unknown
Mass
Unknown
Launch date (UTC)
1991-10-29 (35 years ago)
Launch vehicle
Unknown
Launch site
French Guiana (FRGUI)
Object type
Payload
Rocket body
Debris
Shape & HBR
Unknown shape, 0.7 m
Radar Cross Section
Large (>1 m²)

Expand to show TLE details & history
Last TLE update: 11 months ago

TLE from 11 months ago
0 ARIANE 44L DEB
1 27671U 91075G   25191.19549464  .03019517  18580-2  10373-1 0  9990
2 27671   7.0189 162.0125 0609222 315.7503 141.5298 14.75812597440773
Epoch: 2025-07-10T04:41Z
TLE epoch observation values (Epoch: 2025-07-10T04:41:30.736Z)
Latitude
6.91543°
Longitude
-95.26958°
Altitude
983.015 km
Speed
7.182 km/s
True Right ascension
17h 33m 53s
True Declination
6° 52' 33"
Sunlit
Object was in full shadow at epoch
Visualization orbit readout
Latitude
Unknown
Longitude
Unknown
Altitude
Unknown
Speed
Unknown
Apparent Right ascension
Unknown
Apparent Declination
Unknown
Sunlit
N/A
Visualization observer readout
Local Sidereal Time
23:08:30
Azimuth
Unknown
Elevation
Unknown
Doppler factor
Unknown
Orbital elements
Apogee altitude
1,076.842 km
Perigee altitude
220.655 km
Semi-major axis
7,026.885 km
Eccentricity
0.06092
Inclination
7.0189°
RAAN
162.0125°
Arg. of periapsis
315.7503°
True anomaly
145.6245°
Mean anomaly
141.5298°
Eccentric anomaly
143.60112°
Mean motion
3.68467 °/min
Orbital period
97.7 mins
BSTAR
0.010373
Loading maneuver chart data...
Computing Atmospheric mass density...
Loading historical data...
Loading historical data...
Loading historical data...
Loading historical data...
Loading historical data...
Loading historical data...
Loading historical data...

Documentation

Showing up to 5 results
|